Location: Brno
(49.2000°N, 16.6330°E)
Time: 04:27:14
(UTC+01:00)

ISS - Pass Details

Date: 06 December 2021
Orbit: 413 x 422 km, 51.6° (Epoch: 22 January)

Event Time Altitude Azimuth Distance (km) Brightness Sun altitude
Rises 17:53:22 0° 287° (WNW) 2,384 1.1 -18.3°
Reaches altitude 10° 17:55:42 10° 274° (W) 1,513 0.2 -18.6°
Maximum altitude 17:58:33 25° 217° (SW) 898 -1.6 -19.1°
Enters shadow 18:01:10 11° 162° (SSE) 1,435 -1.1 -19.5°
